Wind_Speed
9 8 8 8 8 9 11 12 13 13 14 13 13 13 13 12 12 11 13 14 14 16 18 20 21 21 22 23 23 24 26 26 26 26 26 26 26 26 26 26 26 27 28 29
8 7 8 8 9 10 11 12 12 13 13 13 13 12 12 12 12 12 13 14 15 16 18 19 20 21 21 22 22 23 23 24 25 25 26 26 26 26 26 27 28 28 29 29
7 8 8 9 8 9 10 11 11 12 12 12 12 12 12 11 12 12 13 14 15 16 17 16 17 20 22 23 22 22 23 23 24 25 25 26 26 27 27 28 28 28 28 28
6 7 7 8 8 9 10 11 11 12 12 12 12 11 10 10 10 11 12 11 13 14 15 16 17 19 20 20 21 21 22 22 22 23 23 23 24 25 26 25 26 26 26 27
5 6 7 8 8 9 10 10 10 10 10 10 10 9 9 9 10 10 10 11 11 12 12 13 15 16 17 17 18 19 19 20 20 21 21 22 23 23 24 24 24 25 25 26
5 6 7 8 8 9 9 9 9 9 9 9 9 9 8 8 8 8 8 9 10 10 11 12 12 13 14 14 15 16 17 18 18 18 19 20 21 22 22 23 23 24 24 24
4 5 7 7 8 8 8 9 9 8 8 8 8 8 8 8 8 8 8 9 10 11 11 11 12 12 12 13 13 14 15 16 17 18 18 19 20 20 21 21 22 22 22 22
4 5 6 7 7 7 8 8 8 7 6 6 6 7 7 7 7 7 8 9 10 11 11 11 12 12 13 13 13 14 15 16 17 17 18 19 19 20 20 20 20 20 20 20
3 4 5 5 6 6 7 7 6 5 4 4 4 5 5 5 6 7 7 8 8 8 9 10 10 11 12 12 13 13 14 15 15 16 17 17 18 18 19 19 18 18 18 17
2 2 3 4 5 5 6 6 6 5 4 4 3 3 3 3 3 4 5 6 7 7 8 9 9 10 11 11 12 12 12 12 13 14 14 15 15 16 16 16 16 16 16 16
1 1 3 4 4 5 6 7 7 6 6 5 4 4 3 2 2 2 3 4 5 6 7 8 8 9 9 10 11 11 11 11 12 12 12 13 13 13 14 14 14 14 14 13
1 2 3 4 5 6 7 8 8 7 7 6 6 5 4 4 3 2 3 3 3 4 5 6 7 8 8 9 10 10 10 11 11 11 11 12 12 11 11 11 11 11 11 11
3 4 4 5 6 7 8 9 9 9 9 8 8 7 7 6 5 4 4 3 2 3 3 4 5 6 7 7 8 8 8 8 9 9 9 9 9 9 9 9 9 9 9 10
4 5 5 6 7 9 9 10 10 10 10 10 10 9 8 7 7 7 6 5 4 3 2 3 4 5 5 4 5 5 5 6 6 6 6 6 7 7 7 7 7 7 7 7
5 5 6 7 8 9 10 10 11 11 11 11 11 10 10 10 9 9 8 7 6 5 5 4 3 3 2 2 2 3 3 4 4 4 4 4 5 4 5 5 5 5 5 5
6 6 7 8 9 10 10 11 12 12 12 12 12 12 12 12 11 10 9 9 9 8 7 6 4 3 2 1 1 1 1 1 2 2 2 2 2 2 2 2 3 3 3 3
7 7 7 8 9 10 11 12 13 13 13 14 14 14 14 14 13 12 11 11 10 10 9 8 6 5 4 4 3 3 2 2 2 2 2 1 1 1 1 2 2 2 2 1
8 7 7 8 9 10 11 12 13 14 14 15 15 16 16 16 15 15 14 13 12 12 11 10 9 8 7 6 5 5 5 4 4 4 4 3 3 3 3 3 3 2 2 1
9 8 8 9 10 10 11 12 13 13 14 15 15 16 17 17 17 17 16 15 15 14 13 12 11 10 9 8 7 7 6 6 6 5 5 5 5 5 5 4 4 3 3 3
10 9 9 9 10 10 11 12 13 13 14 14 15 16 17 17 18 18 18 18 17 17 16 15 14 13 12 11 10 10 9 8 8 8 7 7 7 7 6 6 5 5 4 4
11 10 10 10 10 10 11 12 13 13 14 14 15 16 16 17 18 18 19 19 19 19 18 17 17 16 15 14 13 13 12 11 11 10 10 9 9 8 8 8 7 7 7 6
12 11 10 10 10 10 11 11 12 13 13 14 14 15 16 17 18 19 19 20 20 20 20 20 19 19 18 17 16 15 15 14 13 13 12 11 11 10 10 9 9 9 8 8
12 11 10 9 9 9 10 10 11 12 12 13 14 15 15 16 17 18 19 19 20 20 20 21 20 20 19 18 17 17 16 15 15 14 13 13 12 12 11 10 10 10 9 9
13 11 10 9 8 8 9 9 10 11 11 12 13 13 14 15 16 17 18 18 19 19 20 20 20 20 19 19 18 17 16 16 15 14 14 13 12 12 11 11 10 10 9 9
14 12 10 8 7 7 8 8 9 9 10 11 11 12 12 13 14 15 16 16 17 18 18 18 19 19 19 18 18 17 16 16 15 15 14 13 13 12 12 11 10 10 9 9
15 12 10 8 7 6 6 7 8 8 9 9 10 10 11 11 12 13 13 14 15 15 16 17 17 17 17 17 17 16 16 15 15 14 14 13 12 12 11 11 10 9 9 9
16 13 10 8 6 5 5 5 6 7 8 8 9 9 9 9 10 10 11 12 12 13 14 14 15 15 15 15 15 15 14 14 14 13 13 13 12 11 11 10 9 9 8 8
Wind_Direction
293 289 291 292 287 283 284 283 279 280 281 282 279 281 281 279 269 256 247 244 238 234 230 230 232 232 232 234 235 238 240 242 243 243 244 247 250 250 252 255 256 258 262 264
297 295 295 292 288 286 287 286 285 283 284 282 279 281 279 271 266 256 252 249 243 236 232 234 233 234 236 238 239 240 241 240 241 244 246 249 250 251 253 257 259 262 265 266
299 298 299 297 294 296 295 293 292 289 287 286 286 281 278 271 263 257 255 253 244 237 234 236 237 235 235 238 240 241 241 242 246 247 249 252 252 253 255 258 261 264 266 268
300 303 303 300 298 300 300 297 294 291 288 286 284 281 275 267 259 254 252 250 243 234 234 238 238 239 237 238 241 243 245 246 247 250 252 254 255 257 258 259 262 265 267 270
296 304 306 307 306 303 304 304 300 294 289 285 283 280 276 270 265 257 250 245 244 246 248 244 242 241 243 241 242 243 246 249 251 252 254 256 258 259 260 261 264 267 269 271
299 306 307 306 309 310 311 311 309 300 292 286 283 280 274 262 260 255 245 245 251 252 248 245 243 243 245 244 244 245 249 250 252 253 255 257 259 261 263 265 267 269 271 272
297 305 306 310 310 314 315 315 313 307 297 286 281 276 267 261 259 256 248 245 243 245 243 243 246 247 247 247 248 252 253 255 257 259 260 263 264 265 265 267 268 268 270 271
289 299 307 312 313 316 319 320 320 313 302 288 282 279 274 270 266 263 254 253 250 247 249 248 251 254 256 255 257 259 259 260 260 262 263 264 264 266 267 267 268 269 269 270
278 295 310 320 325 330 332 336 336 330 324 308 294 285 279 280 274 272 263 257 253 247 248 251 253 253 254 255 259 262 263 262 262 263 264 264 266 267 268 268 268 268 267 268
277 310 326 337 343 350 354 357 1 356 345 334 333 328 316 308 293 278 264 258 256 254 255 257 256 257 259 261 263 264 265 266 267 267 267 268 269 270 270 269 268 266 265 266
314 357 5 9 8 9 13 14 12 10 9 13 13 7 357 351 327 300 274 263 266 264 260 258 257 259 261 261 262 263 264 266 268 270 271 273 274 274 272 269 268 265 263 264
89 59 45 35 30 29 29 28 26 25 26 27 25 27 29 22 10 354 329 305 279 268 262 256 260 262 265 266 266 265 264 267 270 272 274 274 274 273 272 269 266 264 260 261
98 77 63 52 47 43 39 37 35 36 38 37 35 39 40 38 33 22 10 357 327 292 278 273 273 271 272 272 268 265 264 266 269 272 274 275 274 273 270 265 262 260 259 262
106 88 74 63 56 51 47 44 43 46 47 44 44 46 45 44 39 36 34 30 23 6 329 302 288 282 279 274 274 266 261 264 269 273 276 278 277 273 269 262 258 257 258 260
112 94 79 70 62 55 50 48 50 52 50 47 47 49 48 47 44 41 39 35 29 17 4 345 324 306 285 280 277 276 272 272 275 280 286 286 278 272 265 255 248 246 246 249
119 102 85 74 66 59 55 53 54 55 53 52 52 52 50 49 48 46 43 39 34 30 28 29 32 36 43 38 30 11 343 316 303 303 306 297 280 265 251 234 218 218 224 235
124 109 91 78 71 64 61 58 57 57 57 56 54 53 52 52 51 50 47 45 43 41 42 46 50 54 59 60 54 50 52 48 39 36 43 51 74 143 157 162 166 179 187 199
123 112 98 85 76 71 67 63 60 60 60 59 57 55 54 53 53 51 50 48 47 46 47 49 53 58 62 63 62 64 68 68 70 69 71 75 84 96 108 116 124 127 127 108
125 113 101 91 82 76 71 66 63 61 62 61 59 57 55 54 54 53 52 52 51 51 50 50 54 58 62 66 67 69 72 73 72 71 72 75 82 90 96 99 103 101 95 84
128 116 105 95 87 80 74 69 65 63 63 62 60 57 55 55 55 55 55 54 54 54 54 55 58 62 65 67 69 71 73 74 75 75 77 79 82 86 89 90 90 89 87 82
132 121 110 99 90 82 77 72 67 64 63 62 60 58 56 56 56 56 56 56 56 56 57 58 59 62 65 68 70 72 73 74 75 77 77 78 80 82 83 84 84 83 83 82
137 127 116 105 94 86 79 73 68 65 63 62 61 59 58 58 58 58 58 58 58 59 59 61 62 64 67 70 71 72 72 72 73 74 75 76 77 79 80 81 81 82 82 82
143 134 123 111 99 89 80 74 69 64 63 62 61 60 59 58 58 58 59 59 60 61 62 62 64 65 66 68 69 70 70 70 70 72 73 74 74 75 75 77 79 80 81 81
149 140 130 118 104 91 82 75 69 64 62 61 60 59 59 58 58 58 59 59 60 60 61 62 63 64 65 66 66 67 67 68 69 70 70 70 70 70 72 74 75 76 77 76
157 149 139 126 111 95 83 74 68 63 59 58 58 58 57 56 56 56 57 57 58 59 60 60 61 61 62 62 63 63 65 65 66 66 66 66 67 68 69 70 71 72 71 70
166 159 150 138 122 104 87 73 64 60 57 54 53 53 53 52 52 53 54 55 55 55 57 58 59 59 60 60 60 60 61 61 61 61 60 61 62 64 66 66 66 66 65 64
175 170 163 154 138 118 96 76 62 53 50 49 47 46 46 45 46 46 48 49 50 51 51 52 53 54 55 56 56 56 56 57 57 56 57 57 58 59 60 60 59 58 57 55
Height
5742 5741 5740 5739 5738 5737 5736 5735 5734 5733 5731 5730 5729 5728 5727 5727 5726 5726 5727 5728 5729 5730 5732 5734 5736 5737 5740 5742 5744 5746 5748 5750 5751 5753 5754 5755 5757 5758 5759 5760 5760 5761 5761 5760
5740 5739 5738 5737 5736 5734 5733 5731 5730 5729 5728 5726 5725 5724 5723 5723 5723 5723 5724 5724 5725 5726 5727 5729 5731 5733 5735 5736 5738 5740 5742 5743 5745 5746 5748 5749 5750 5751 5752 5752 5753 5753 5752 5752
5738 5737 5736 5735 5734 5732 5730 5729 5727 5726 5725 5723 5722 5721 5720 5719 5719 5720 5720 5720 5721 5722 5723 5724 5726 5728 5729 5731 5733 5734 5736 5737 5739 5740 5741 5742 5743 5744 5744 5745 5745 5744 5744 5744
5736 5736 5734 5735 5731 5729 5728 5726 5724 5722 5721 5720 5718 5717 5716 5716 5716 5716 5716 5717 5717 5718 5719 5721 5722 5723 5724 5726 5727 5729 5730 5731 5732 5734 5734 5735 5736 5736 5737 5737 5737 5737 5736 5736
5735 5734 5733 5732 5729 5727 5725 5723 5721 5719 5718 5717 5716 5715 5714 5713 5713 5713 5713 5713 5714 5715 5716 5717 5717 5718 5719 5721 5722 5723 5724 5726 5726 5727 5728 5729 5729 5730 5730 5730 5730 5729 5729 5729
5733 5732 5731 5731 5727 5725 5724 5721 5719 5717 5715 5714 5713 5713 5713 5711 5710 5710 5710 5711 5711 5712 5713 5713 5714 5714 5716 5717 5718 5719 5720 5721 5721 5722 5723 5723 5723 5723 5723 5723 5723 5723 5722 5722
5731 5730 5729 5728 5725 5724 5723 5721 5717 5715 5713 5711 5710 5710 5710 5708 5707 5707 5708 5708 5708 5709 5709 5710 5711 5711 5712 5713 5714 5715 5715 5716 5716 5717 5717 5717 5717 5717 5717 5717 5717 5716 5716 5715
5730 5729 5730 5726 5723 5722 5721 5717 5715 5713 5711 5709 5708 5707 5706 5705 5705 5705 5705 5705 5705 5706 5706 5707 5707 5708 5709 5709 5710 5710 5711 5711 5711 5712 5712 5712 5712 5711 5711 5711 5710 5710 5710 5709
5730 5730 5727 5724 5722 5720 5718 5716 5713 5711 5709 5708 5706 5705 5704 5703 5703 5702 5702 5702 5702 5703 5703 5703 5704 5704 5705 5705 5706 5706 5706 5706 5706 5706 5706 5706 5706 5706 5705 5705 5704 5704 5704 5704
5728 5726 5725 5723 5721 5719 5717 5715 5712 5710 5708 5707 5705 5704 5703 5702 5701 5701 5700 5700 5700 5700 5700 5700 5700 5701 5701 5701 5702 5702 5702 5702 5702 5702 5701 5701 5701 5700 5700 5699 5699 5699 5699 5699
5727 5726 5724 5723 5721 5719 5716 5714 5712 5710 5708 5706 5705 5703 5702 5701 5700 5699 5699 5698 5698 5697 5697 5697 5697 5697 5698 5698 5698 5698 5698 5698 5698 5697 5697 5697 5696 5696 5695 5694 5694 5694 5694 5694
5727 5726 5725 5723 5721 5719 5717 5714 5712 5710 5708 5706 5704 5703 5702 5701 5700 5699 5697 5696 5696 5695 5695 5695 5695 5695 5695 5695 5694 5694 5694 5694 5694 5694 5693 5692 5692 5691 5690 5690 5690 5690 5690 5691
5727 5726 5725 5723 5721 5719 5717 5715 5713 5711 5709 5707 5705 5703 5702 5701 5699 5698 5697 5695 5694 5694 5693 5693 5692 5692 5692 5691 5691 5691 5691 5691 5690 5690 5690 5689 5688 5688 5688 5687 5687 5687 5687 5688
5728 5727 5726 5724 5722 5721 5719 5716 5714 5712 5710 5708 5706 5705 5703 5701 5700 5698 5697 5695 5694 5693 5692 5691 5690 5690 5689 5689 5689 5688 5688 5688 5688 5687 5687 5686 5686 5685 5685 5685 5685 5685 5685 5685
5729 5728 5727 5726 5724 5722 5720 5718 5716 5714 5712 5710 5708 5706 5704 5702 5701 5699 5697 5696 5694 5692 5691 5690 5689 5688 5688 5687 5687 5686 5686 5686 5685 5685 5685 5684 5683 5683 5683 5682 5683 5683 5683 5683
5729 5729 5728 5727 5726 5724 5722 5720 5718 5716 5714 5712 5710 5708 5706 5704 5702 5700 5698 5697 5695 5693 5691 5689 5688 5687 5687 5686 5686 5685 5685 5685 5684 5684 5683 5683 5682 5682 5682 5682 5682 5682 5682 5683
5730 5730 5730 5729 5728 5726 5724 5723 5721 5719 5717 5715 5713 5710 5708 5706 5704 5702 5700 5698 5696 5694 5692 5690 5689 5688 5687 5686 5686 5685 5685 5684 5684 5683 5683 5682 5682 5682 5682 5682 5682 5682 5682 5682
5732 5732 5731 5731 5730 5728 5727 5725 5724 5722 5720 5718 5716 5714 5711 5709 5707 5705 5702 5700 5698 5696 5694 5692 5690 5689 5688 5687 5687 5686 5685 5685 5684 5684 5683 5683 5682 5682 5682 5682 5682 5682 5682 5682
5733 5733 5733 5732 5732 5731 5729 5728 5726 5725 5723 5721 5719 5717 5715 5713 5710 5708 5705 5703 5700 5698 5696 5694 5692 5691 5690 5689 5688 5687 5687 5686 5686 5685 5685 5684 5684 5683 5683 5683 5683 5683 5683 5683
5734 5734 5735 5734 5734 5733 5732 5731 5729 5728 5726 5724 5723 5721 5718 5716 5714 5711 5709 5706 5704 5701 5699 5697 5695 5693 5692 5691 5690 5689 5689 5688 5688 5687 5687 5686 5686 5685 5685 5685 5685 5684 5684 5684
5735 5736 5736 5736 5736 5735 5734 5733 5732 5731 5729 5728 5726 5724 5722 5720 5717 5715 5712 5710 5708 5705 5703 5700 5698 5697 5695 5694 5693 5692 5692 5691 5690 5690 5689 5688 5688 5688 5687 5687 5686 5686 5686 5685
5736 5737 5738 5738 5738 5738 5737 5736 5735 5734 5732 5731 5729 5727 5725 5723 5721 5719 5717 5714 5712 5709 5707 5705 5703 5701 5699 5698 5697 5696 5695 5695 5694 5693 5692 5692 5691 5690 5690 5689 5689 5688 5688 5687
5737 5738 5739 5740 5740 5740 5739 5739 5738 5736 5735 5734 5732 5731 5729 5727 5725 5723 5721 5719 5716 5714 5712 5710 5708 5706 5705 5703 5702 5701 5700 5699 5698 5697 5696 5695 5694 5694 5693 5692 5692 5691 5690 5690
5738 5739 5740 5741 5742 5742 5741 5741 5740 5739 5738 5737 5735 5734 5732 5731 5729 5727 5725 5723 5721 5719 5717 5715 5713 5711 5710 5708 5706 5705 5704 5703 5702 5701 5700 5699 5698 5697 5696 5695 5695 5694 5693 5693
5738 5740 5741 5742 5743 5743 5743 5742 5742 5741 5740 5739 5738 5737 5735 5734 5732 5731 5729 5727 5725 5723 5721 5719 5718 5716 5714 5712 5711 5710 5709 5707 5706 5705 5704 5703 5701 5700 5700 5699 5698 5697 5696 5695
5738 5740 5742 5743 5744 5744 5744 5744 5743 5743 5742 5741 5740 5739 5738 5737 5735 5734 5732 5730 5729 5727 5725 5723 5722 5720 5718 5717 5715 5714 5713 5711 5710 5709 5707 5706 5705 5704 5703 5702 5701 5700 5699 5698
5737 5739 5741 5743 5744 5745 5745 5745 5745 5744 5743 5743 5742 5741 5740 5739 5737 5736 5735 5733 5732 5730 5729 5727 5725 5724 5722 5721 5719 5718 5716 5715 5714 5712 5711 5709 5708 5707 5706 5704 5703 5702 5701 5700